This demonstration page uses our WeatherBlox Daily Observations layout. Learn more.

Hourly Observations for July 15, 2015

Temp ( °F °C ) Dew Point ( °F °C ) Humidity (%) Winds ( mph kmh ) Pressure ( in mb ) Visibility ( mi km ) Precip ( " mm )
12:15 am 00:15 Clear 76 24.3 64 17.5 66 66 E 5 7 29.77 1008 10 16.0934 0 0
12:35 am 00:35 Clear 76 24.3 64 17.6 66 66 ESE 3 6 29.77 1008 10 16.0934 0 0
12:55 am 00:55 Clear 74 23.3 66 19.1 77 77 N 9 15 29.77 1008 10 16.0934 0 0
1:15 am 01:15 Clear 78 25.6 62 16.9 59 59 NE 7 11 29.74 1007 10 16.0934 0 0
1:35 am 01:35 Clear 75 23.9 69 20.7 82 82 NNE 8 13 29.77 1008 10 16.0934 0 0
1:55 am 01:55 Clear 74 23.5 71 21.4 88 88 NNE 9 15 29.77 1008 10 16.0934 0 0
2:15 am 02:15 Clear 73 23 70 21.2 90 90 NNE 9 15 29.77 1008 10 16.0934 0 0
2:35 am 02:35 Clear 73 22.8 70 21.2 91 91 NNE 7 11 29.77 1008 10 16.0934 0 0
2:55 am 02:55 Partly Cloudy 73 22.5 70 21.1 92 92 ENE 3 6 29.77 1008 10 16.0934 0 0
3:15 am 03:15 Cloudy 74 23.4 70 21.2 88 88 SE 7 11 29.8 1009 10 16.0934 0 0
3:35 am 03:35 Cloudy with Heavy Thunderstorms 70 20.9 66 18.8 88 88 SW 10 17 29.85 1011 7 11.26538 0.07 1.778
3:55 am 03:55 Cloudy with Thunderstorms 68 20.1 65 18.5 91 91 WSW 9 15 29.85 1011 5 8.0467 0.3 7.62
4:15 am 04:15 Cloudy with Nearby Thunderstorms 68 20.1 66 18.8 92 92 WSW 10 17 29.83 1010 7 11.26538 0.02 0.508
4:35 am 04:35 Cloudy with Light Rain 68 20.1 66 19 93 93 WSW 8 13 29.83 1010 7 11.26538 0.05 1.27
4:55 am 04:55 Cloudy with Rain 68 20.1 66 19 93 93 SW 13 20 29.83 1010 10 16.0934 0.07 1.778
5:15 am 05:15 Cloudy with Rain 68 20 66 19 94 94 SW 8 13 29.83 1010 7 11.26538 0.03 0.762
5:35 am 05:35 Cloudy with Rain 68 20 66 18.8 93 93 WSW 5 7 29.83 1010 7 11.26538 0.08 2.032
5:55 am 05:55 Cloudy with Rain 68 20 66 18.8 93 93 NNE 3 6 29.83 1010 7 11.26538 0.12 3.048
6:15 am 06:15 Mostly Cloudy with Light Rain 68 20 66 19 94 94 ENE 5 7 29.83 1010 10 16.0934 0.03 0.762
6:35 am 06:35 Cloudy with Light Rain 68 20 66 19.1 95 95 E 6 9 29.83 1010 10 16.0934 0.04 1.016
6:55 am 06:55 Cloudy with Light Rain 68 19.9 66 19 95 95 E 7 11 29.83 1010 7 11.26538 0.05 1.27
7:15 am 07:15 Partly Cloudy 68 19.8 66 19 95 95 E 7 11 29.83 1010 7 11.26538 0 0
7:35 am 07:35 Mostly Cloudy with Light Rain 68 19.8 66 19 95 95 E 10 17 29.83 1010 10 16.0934 0 0
7:55 am 07:55 Mostly Cloudy 68 19.9 66 19 95 95 E 7 11 29.83 1010 10 16.0934 0 0
8:15 am 08:15 Partly Cloudy 68 20 66 19 94 94 E 3 6 29.83 1010 10 16.0934 0 0
8:35 am 08:35 Mostly Cloudy 68 20 66 18.9 93 93 SE 6 9 29.85 1011 10 16.0934 0 0
8:55 am 08:55 Partly Cloudy 68 20.1 66 19 93 93 SSE 5 7 29.85 1011 10 16.0934 0 0
9:15 am 09:15 Partly Cloudy 69 20.7 66 19 90 90 W 5 7 29.83 1010 10 16.0934 0 0
9:35 am 09:35 Sunny 70 21.1 67 19.2 89 89 Calm 29.83 1010 10 16.0934 0 0
9:55 am 09:55 Sunny 72 22 66 18.7 82 82 Calm 29.83 1010 10 16.0934 0 0
10:15 am 10:15 Sunny 73 22.5 65 18.5 78 78 Calm 29.83 1010 10 16.0934 0 0
10:35 am 10:35 Sunny 73 22.8 65 18.1 75 75 Calm 29.83 1010 10 16.0934 0 0
10:55 am 10:55 Sunny 73 23 66 18.9 78 78 NW 3 6 29.83 1010 10 16.0934 0 0
11:15 am 11:15 Sunny 74 23.3 65 18.1 73 73 NW 5 7 29.83 1010 10 16.0934 0 0
11:35 am 11:35 Sunny 75 23.7 66 19 75 75 NNW 3 6 29.83 1010 10 16.0934 0 0
11:55 am 11:55 Sunny 75 23.9 66 18.9 74 74 Calm 29.83 1010 10 16.0934 0 0
12:15 pm 12:15 Partly Cloudy 76 24.5 65 18.6 70 70 Calm 29.85 1011 10 16.0934 0 0
12:35 pm 12:35 Sunny 77 25.1 65 18.5 67 67 ESE 7 11 29.85 1011 10 16.0934 0 0
12:55 pm 12:55 Partly Cloudy 77 24.8 65 18.2 67 67 E 5 7 29.85 1011 10 16.0934 0 0
1:15 pm 13:15 Partly Cloudy 77 25.2 65 18.1 65 65 ESE 3 6 29.85 1011 10 16.0934 0 0
1:35 pm 13:35 Partly Cloudy 78 25.3 63 17.3 61 61 SE 5 7 29.83 1010 10 16.0934 0 0
1:55 pm 13:55 Mostly Cloudy 79 26 65 18.4 63 63 E 7 11 29.83 1010 10 16.0934 0 0
2:15 pm 14:15 Mostly Cloudy 79 26.2 65 18.4 62 62 ESE 7 11 29.83 1010 10 16.0934 0 0
2:35 pm 14:35 Partly Cloudy 79 26.2 65 18.1 61 61 SE 7 11 29.83 1010 10 16.0934 0 0
2:55 pm 14:55 Mostly Cloudy 80 26.4 65 18.4 62 62 SE 7 11 29.83 1010 10 16.0934 0 0
3:15 pm 15:15 Mostly Cloudy 80 26.6 66 18.9 63 63 SE 8 13 29.77 1008 10 16.0934 0 0
3:35 pm 15:35 Partly Cloudy 81 27.3 67 19.2 61 61 SSE 8 13 29.77 1008 10 16.0934 0 0
3:55 pm 15:55 Partly Cloudy 81 27.2 66 18.7 60 60 SSE 5 7 29.77 1008 10 16.0934 0 0
4:15 pm 16:15 Sunny 81 27.1 66 18.8 61 61 SSE 7 11 29.77 1008 10 16.0934 0 0
4:35 pm 16:35 Sunny 81 27.4 66 19.1 61 61 SE 8 13 29.77 1008 10 16.0934 0 0
4:55 pm 16:55 Sunny 82 28 66 18.8 57 57 SSE 3 6 29.77 1008 10 16.0934 0 0
5:15 pm 17:15 Sunny 82 27.6 66 18.9 59 59 SSE 5 7 29.77 1008 10 16.0934 0 0
5:35 pm 17:35 Partly Cloudy 82 27.5 66 19 60 60 Calm 29.77 1008 10 16.0934 0 0
5:55 pm 17:55 Partly Cloudy 82 27.6 67 19.3 61 61 Calm 29.74 1007 10 16.0934 0 0
6:15 pm 18:15 Mostly Cloudy 81 27.2 68 19.8 64 64 Calm 29.74 1007 10 16.0934 0 0
6:35 pm 18:35 Cloudy with Nearby Thunderstorms 81 27.2 69 20.4 66 66 ENE 3 6 29.71 1006 10 16.0934 0 0
6:55 pm 18:55 Mostly Cloudy 80 26.8 69 20.5 68 68 ENE 7 11 29.71 1006 10 16.0934 0 0
7:15 pm 19:15 Mostly Cloudy 81 27 69 20.8 69 69 E 6 9 29.71 1006 10 16.0934 0 0
7:35 pm 19:35 Mostly Cloudy 80 26.5 69 20.8 71 71 E 6 9 29.71 1006 10 16.0934 0 0
7:55 pm 19:55 Mostly Cloudy 79 25.9 71 21.4 76 76 E 10 17 29.71 1006 10 16.0934 0 0
8:15 pm 20:15 Cloudy 77 25 71 21.5 81 81 E 10 17 29.74 1007 10 16.0934 0 0
8:35 pm 20:35 Mostly Cloudy 76 24.6 71 21.7 84 84 E 6 9 29.74 1007 10 16.0934 0 0
8:55 pm 20:55 Mostly Cloudy 76 24.2 72 22 88 88 E 7 11 29.77 1008 10 16.0934 0 0
9:15 pm 21:15 Mostly Cloudy 75 24 71 21.9 88 88 ENE 5 7 29.77 1008 10 16.0934 0 0
9:35 pm 21:35 Partly Cloudy 75 23.7 72 22 90 90 NE 5 7 29.77 1008 10 16.0934 0 0
9:55 pm 21:55 Partly Cloudy 74 23.5 71 21.8 90 90 ENE 6 9 29.77 1008 10 16.0934 0 0
10:15 pm 22:15 Mostly Cloudy 74 23.3 71 21.8 91 91 ENE 6 9 29.77 1008 10 16.0934 0 0
10:35 pm 22:35 Mostly Cloudy 74 23.2 71 21.8 92 92 ENE 5 7 29.77 1008 10 16.0934 0 0
10:55 pm 22:55 Partly Cloudy 73 23 71 21.7 92 92 E 6 9 29.77 1008 7 11.26538 0 0
11:15 pm 23:15 Partly Cloudy with Mist and Fog 73 23 71 21.9 94 94 E 6 9 29.77 1008 5 8.0467 0 0
11:35 pm 23:35 Partly Cloudy with Mist and Fog 73 23 72 22 94 94 E 7 11 29.77 1008 5 8.0467 0 0
11:55 pm 23:55 Mostly Cloudy with Thunderstorms 73 23 72 22 94 94 E 8 13 29.77 1008 7 11.26538 0 0

Powered by AerisWeather